Hourly Data Report for October 22, 2018

MONTREAL INTL A
QUEBEC
Current Station Operator: NAVCAN

45°28'14.000" N
73°44'27.000" W
36.00 m
7025251
71627
YUL

Download Data

Hourly Data (October 2018)
Hourly Data Report for October 22, 2018
TIME
LST
Temp Definition
°C
Dew Point Definition
°C
Rel Hum Definition
%
Precip. Amount Definition
mm

Wind Dir Definition
10's deg

Wind Spd Definition
km/h
Visibility Definition
km
Stn Press Definition
kPa
Hmdx Definition


Wind Chill Definition


Weather Definition


00:00 0.8 -4.9 66   27 15 24.1 101.41     LegendNANA
01:00 0.4 -5.0 67   28 14 24.1 101.42     Mostly Cloudy
02:00 0.4 -5.8 63   27 15 24.1 101.44     LegendNANA
03:00 -1.3 -5.8 72   24 10 24.1 101.49   -5 LegendNANA
04:00 -1.4 -5.5 74   26 8 24.1 101.50   -4 Mostly Cloudy
05:00 -0.4 -5.1 71   25 10 24.1 101.52   -4 LegendNANA
06:00 0.0 -4.7 70   24 8 48.3 101.54   -3 LegendNANA
07:00 0.5 -4.6 69   25 7 48.3 101.57     Mostly Cloudy
08:00 1.9 -3.9 65   25 7 48.3 101.60     LegendNANA
09:00 3.1 -6.2 51   30 7 48.3 101.61     LegendNANA
10:00 2.9 -6.6 50   28 14 48.3 101.62     Mostly Cloudy
11:00 3.9 -6.0 48   27 13 48.3 101.62     LegendNANA
12:00 5.0 -4.8 49   29 14 48.3 101.57     LegendNANA
13:00 6.0 -4.5 47   20 11 24.1 101.53     Mostly Cloudy
14:00 5.3 -3.6 52   19 12 24.1 101.51     LegendNANA
15:00 5.4 -4.1 50   20 12 24.1 101.50     LegendNANA
16:00 5.5 -4.9 47   21 10 24.1 101.50     Mostly Cloudy
17:00 4.9 -4.2 52   25 5 24.1 101.51     LegendNANA
18:00 4.7 -3.9 54   36 2 24.1 101.54     LegendNANA
19:00 4.7 -3.5 55   10 3 24.1 101.55     Cloudy
20:00 4.9 -3.1 56   13 12 24.1 101.57     LegendNANA
21:00 4.0 -0.9 70   36 2 24.1 101.61     Rain
22:00 3.4 0.6 82   3 12 24.1 101.57     Cloudy
23:00 3.4 0.5 81   2 14 24.1 101.57     LegendNANA

Notes on Data Quality.

Legend

  • E = Estimated
  • M = Missing
  • NA = Not Available*
  • [empty] = Indicates an unobserved value
Date modified: